This is the latest recevied weather packets stored in our database for station/object N1IJV-10. If no packets are shown the sender has not sent any weather packets the latest 10 day(s).
| Time | Temp. | Humidity | Pressure | Rain* | Wind** | Luminosity | Snow |
|---|---|---|---|---|---|---|---|
| 1777833830 | 15.56° C | 61% | 1008.7 hPa | 0 mm | - | 681 W/m² | - |
| 1777833527 | 15.56° C | 63% | 1008.8 hPa | 0 mm | - | 668 W/m² | - |
| 1777833224 | 15° C | 65% | 1008.9 hPa | 0 mm | - | 671 W/m² | - |
| 1777832921 | 15° C | 67% | 1009.1 hPa | 0 mm | - | 683 W/m² | - |
| 1777832620 | 14.44° C | 66% | 1009.2 hPa | 0 mm | - | 707 W/m² | - |
| 1777832317 | 14.44° C | 66% | 1009.1 hPa | 0 mm | - | 353 W/m² | - |
| 1777832014 | 13.89° C | 69% | 1009.2 hPa | 0 mm | - | 549 W/m² | - |
| 1777831710 | 13.33° C | 73% | 1009.6 hPa | 0 mm | - | 613 W/m² | - |
| 1777831409 | 12.78° C | 76% | 1009.7 hPa | 0 mm | - | 372 W/m² | - |
| 1777831104 | 12.78° C | 74% | 1009.8 hPa | 0 mm | - | 401 W/m² | - |
| 1777830803 | 12.78° C | 74% | 1010 hPa | 0 mm | - | 355 W/m² | - |
| 1777830498 | 12.22° C | 75% | 1010.1 hPa | 0 mm | - | 349 W/m² | - |
| 1777830196 | 12.22° C | 75% | 1009.9 hPa | 0 mm | - | 280 W/m² | - |
| 1777829892 | 11.67° C | 78% | 1010.1 hPa | 0 mm | - | 251 W/m² | - |
| 1777829588 | 11.11° C | 79% | 1010.6 hPa | 0 mm | - | 316 W/m² | - |
| 1777829285 | 10.56° C | 82% | 1010.7 hPa | 0 mm | - | 203 W/m² | - |
| 1777828982 | 10° C | 85% | 1011 hPa | 0 mm | - | 144 W/m² | - |
| 1777828678 | 10° C | 86% | 1010.9 hPa | 0 mm | - | 177 W/m² | - |
| 1777828375 | 10° C | 85% | 1011.2 hPa | 0 mm | - | 162 W/m² | - |
| 1777828072 | 9.44° C | 85% | 1011.4 hPa | 1.27 mm | - | 128 W/m² | - |
| 1777827769 | 9.44° C | 88% | 1011.6 hPa | 1.27 mm | - | 94 W/m² | - |
| 1777827466 | 10° C | 89% | 1011.7 hPa | 0 mm | - | 104 W/m² | - |
| 1777827164 | 9.44° C | 87% | 1012.1 hPa | 0 mm | - | 113 W/m² | - |
| 1777826859 | 10° C | 88% | 1011.9 hPa | 0 mm | - | 136 W/m² | - |
| 1777826557 | 10° C | 88% | 1012.1 hPa | 1.78 mm | - | 158 W/m² | - |
* Rain latest hour (hover to see other rain measurements)
** Current wind speed in m/s (hover to see current wind gust speed)